Find Starlink 4474

NORAD ID: 53547 Int'l Des: 2022-101 Owner: SPXS Country: US Constellation: starlink operational
LEOCIRCULAR

現在のビュー

3D地球を読み込み中...

About Starlink 4474

Starlink 4474 (NORAD 53547) is a starlink constellation satellite (v1.5) launched Aug 19, 2022 by SPXS of US. It operates in LEO, CIRCULAR orbit with a mass of 300.00 kg.

Starlink 4474について

説明を読み込み中...

次回通過

Passes for default location (London). Set your location on the main map for personalized predictions.

高度履歴

Loading altitude history...

軌道要素

1 53547U 22101W 26170.83335647 .00070868 00000-0 40118-2 0 9990
2 53547 53.1603 325.4454 0000172 64.0274 302.1541 15.12406523 5835
Epoch: Jun 19, 2026 • Age: 6 hours

現在のステータス

高度 546.5 km
速度 7.59 km/s
衛星直下点 -51.01°S, 40.72°W
打ち上げ日 Aug 19, 2022
運用期間 3.8 years
タイプ internet

技術仕様

分類 Payload
質量 300.00 kg
乾燥質量 290.00 kg
総質量 300.00 kg
長さ 0.20 m
直径 2.80 m
スパン 9.00 m
形状 Box + pan
製造者 SPXS
バスタイプ Starlink
フェーズステータス In Orbit
所有者/国 SPXS/US

Most Searched